| time (UTC) | temp F | wind direction | speed MPH | gust MPH | rain 1hr in | rain 24hr in | rain mn in | humidity % | barometer mb |
| 20260510023022 | 64 | 118 | 3.0 | 6.0 | 0.00 | 0.00 | 0.00 | 79 | 1013.2 |
| 20260510021535 | 64 | 162 | 0.0 | 0.0 | 0.00 | 0.00 | 0.00 | 78 | 1013.2 |
| 20260510020017 | 64 | 162 | 0.0 | 0.0 | 0.00 | 0.00 | 0.00 | 78 | 1013.2 |
| 20260510014516 | 64 | 161 | 0.0 | 0.0 | 0.00 | 0.00 | 0.00 | 77 | 1013.3 |
| 20260510013021 | 64 | 162 | 0.0 | 0.0 | 0.00 | 0.00 | 0.00 | 76 | 1013.5 |
| 20260510011510 | 65 | 162 | 0.0 | 5.0 | 0.00 | 0.00 | 0.00 | 76 | 1013.5 |
| 20260510010005 | 66 | 199 | 4.0 | 8.0 | 0.00 | 0.00 | 0.00 | 76 | 1013.6 |
| 20260510004503 | 67 | 165 | 5.0 | 9.0 | 0.00 | 0.00 | 0.00 | 75 | 1013.8 |
| 20260510003001 | 66 | 135 | 4.0 | 7.0 | 0.00 | 0.00 | 0.00 | 75 | 1013.8 |
| 20260510001501 | 67 | 116 | 3.0 | 8.0 | 0.00 | 0.00 | 0.00 | 76 | 1013.7 |
| 20260509234556 | 67 | 115 | 8.0 | 10.0 | 0.00 | 0.00 | 0.00 | 75 | 1013.9 |
| 20260509233056 | 66 | 119 | 5.0 | 9.0 | 0.00 | 0.00 | 0.00 | 75 | 1014.1 |
| 20260509231553 | 67 | 110 | 6.0 | 9.0 | 0.00 | 0.00 | 0.00 | 75 | 1014.1 |
| 20260509230054 | 67 | 95 | 7.0 | 10.0 | 0.00 | 0.00 | 0.00 | 75 | 1014.1 |
| 20260509224547 | 67 | 97 | 7.0 | 10.0 | 0.00 | 0.00 | 0.00 | 74 | 1014.2 |
| 20260509223045 | 67 | 102 | 7.0 | 10.0 | 0.00 | 0.00 | 0.00 | 73 | 1014.2 |
| 20260509221544 | 67 | 102 | 7.0 | 9.0 | 0.00 | 0.00 | 0.00 | 72 | 1014.3 |
| 20260509220039 | 67 | 111 | 7.0 | 9.0 | 0.00 | 0.00 | 0.00 | 74 | 1014.3 |
| 20260509214547 | 66 | 105 | 7.0 | 10.0 | 0.00 | 0.00 | 0.00 | 75 | 1014.4 |
| 20260509213036 | 66 | 97 | 6.0 | 9.0 | 0.00 | 0.00 | 0.00 | 77 | 1014.5 |
| 20260509211533 | 66 | 102 | 5.0 | 9.0 | 0.00 | 0.00 | 0.00 | 77 | 1014.6 |
| 20260509210033 | 67 | 93 | 5.0 | 8.0 | 0.00 | 0.00 | 0.00 | 77 | 1014.7 |
| 20260509204527 | 67 | 133 | 5.0 | 9.0 | 0.00 | 0.00 | 0.00 | 75 | 1014.7 |
| 20260509203027 | 67 | 110 | 4.0 | 8.0 | 0.00 | 0.00 | 0.00 | 75 | 1014.7 |
| 20260509201526 | 67 | 109 | 6.0 | 9.0 | 0.00 | 0.00 | 0.00 | 75 | 1014.7 |
| 20260509200057 | 67 | 115 | 6.0 | 9.0 | 0.00 | 0.00 | 0.00 | 75 | 1014.6 |
| 20260509194556 | 67 | 110 | 6.0 | 11.0 | 0.00 | 0.00 | 0.00 | 76 | 1014.5 |
| 20260509193029 | 67 | 136 | 6.0 | 10.0 | 0.00 | 0.00 | 0.00 | 76 | 1014.2 |
| 20260509191538 | 66 | 116 | 7.0 | 10.0 | 0.00 | 0.00 | 0.00 | 76 | 1013.9 |
| 20260509190028 | 67 | 125 | 7.0 | 11.0 | 0.00 | 0.00 | 0.00 | 76 | 1014.0 |
| 20260509184533 | 67 | 135 | 8.0 | 11.0 | 0.00 | 0.00 | 0.00 | 75 | 1014.0 |
| 20260509183029 | 67 | 135 | 9.0 | 12.0 | 0.00 | 0.00 | 0.00 | 74 | 1014.1 |
| 20260509181520 | 67 | 135 | 8.0 | 10.0 | 0.00 | 0.00 | 0.00 | 74 | 1013.9 |
| 20260509180019 | 67 | 124 | 5.0 | 9.0 | 0.00 | 0.00 | 0.00 | 73 | 1013.8 |
| 20260509174522 | 67 | 137 | 6.0 | 11.0 | 0.00 | 0.00 | 0.00 | 75 | 1013.8 |
| 20260509173016 | 67 | 125 | 5.0 | 11.0 | 0.00 | 0.00 | 0.00 | 74 | 1013.6 |
| 20260509171515 | 67 | 147 | 7.0 | 12.0 | 0.00 | 0.00 | 0.00 | 72 | 1013.7 |
| 20260509170014 | 67 | 135 | 8.0 | 12.0 | 0.00 | 0.00 | 0.00 | 70 | 1013.8 |
| 20260509164510 | 67 | 137 | 9.0 | 13.0 | 0.00 | 0.00 | 0.00 | 69 | 1014.0 |
| 20260509163011 | 68 | 132 | 8.0 | 13.0 | 0.00 | 0.00 | 0.00 | 68 | 1014.2 |
| 20260509161510 | 68 | 116 | 8.0 | 12.0 | 0.00 | 0.00 | 0.00 | 68 | 1014.2 |
| 20260509160007 | 67 | 131 | 6.0 | 11.0 | 0.00 | 0.00 | 0.00 | 68 | 1014.3 |
| 20260509154536 | 68 | 118 | 7.0 | 10.0 | 0.00 | 0.00 | 0.00 | 68 | 1014.4 |
| 20260509153044 | 68 | 134 | 5.0 | 12.0 | 0.00 | 0.00 | 0.00 | 70 | 1014.5 |
| 20260509151531 | 68 | 147 | 7.0 | 10.0 | 0.00 | 0.00 | 0.00 | 70 | 1014.8 |
| 20260509150031 | 68 | 139 | 8.0 | 12.0 | 0.00 | 0.00 | 0.00 | 69 | 1014.7 |
| 20260509144532 | 68 | 135 | 8.0 | 11.0 | 0.00 | 0.00 | 0.00 | 69 | 1014.8 |
| 20260509143029 | 68 | 129 | 7.0 | 11.0 | 0.00 | 0.00 | 0.00 | 68 | 1014.9 |
| 20260509141525 | 68 | 110 | 7.0 | 9.0 | 0.00 | 0.00 | 0.00 | 70 | 1014.9 |
| 20260509140024 | 68 | 95 | 7.0 | 9.0 | 0.00 | 0.00 | 0.00 | 69 | 1015.0 |
| 20260509134521 | 67 | 92 | 7.0 | 9.0 | 0.00 | 0.00 | 0.00 | 69 | 1015.1 |
| 20260509133020 | 67 | 88 | 6.0 | 9.0 | 0.00 | 0.00 | 0.00 | 70 | 1015.3 |
| 20260509131515 | 67 | 100 | 6.0 | 9.0 | 0.00 | 0.00 | 0.00 | 70 | 1015.4 |
| 20260509130028 | 67 | 116 | 5.0 | 9.0 | 0.00 | 0.00 | 0.00 | 70 | 1015.4 |
| 20260509124513 | 67 | 103 | 6.0 | 8.0 | 0.00 | 0.00 | 0.00 | 69 | 1015.7 |
| 20260509123017 | 67 | 102 | 5.0 | 8.0 | 0.00 | 0.00 | 0.00 | 70 | 1015.8 |
| 20260509121512 | 67 | 101 | 5.0 | 7.0 | 0.00 | 0.00 | 0.00 | 70 | 1016.0 |
| 20260509120009 | 66 | 94 | 6.0 | 8.0 | 0.00 | 0.00 | 0.00 | 71 | 1016.0 |
| 20260509114508 | 66 | 81 | 6.0 | 9.0 | 0.00 | 0.00 | 0.00 | 72 | 1016.0 |
| 20260509113009 | 66 | 78 | 7.0 | 9.0 | 0.00 | 0.00 | 0.00 | 72 | 1016.1 |
| 20260509111506 | 66 | 73 | 7.0 | 10.0 | 0.00 | 0.00 | 0.00 | 73 | 1016.1 |
| 20260509110005 | 65 | 77 | 8.0 | 10.0 | 0.00 | 0.00 | 0.00 | 75 | 1016.2 |
| 20260509104509 | 65 | 73 | 8.0 | 11.0 | 0.00 | 0.00 | 0.00 | 76 | 1016.3 |
| 20260509103005 | 65 | 87 | 7.0 | 9.0 | 0.00 | 0.00 | 0.00 | 76 | 1016.4 |
| 20260509101507 | 65 | 85 | 6.0 | 8.0 | 0.00 | 0.00 | 0.00 | 76 | 1016.6 |
| 20260509100106 | 65 | 81 | 6.0 | 8.0 | 0.00 | 0.00 | 0.00 | 76 | 1016.6 |
| 20260509094606 | 65 | 79 | 6.0 | 8.0 | 0.00 | 0.00 | 0.00 | 76 | 1016.5 |
| 20260509093058 | 65 | 61 | 5.0 | 6.0 | 0.00 | 0.00 | 0.00 | 74 | 1016.5 |
| 20260509091604 | 66 | 79 | 6.0 | 8.0 | 0.00 | 0.00 | 0.00 | 73 | 1016.5 |
| 20260509090100 | 66 | 67 | 5.0 | 8.0 | 0.00 | 0.00 | 0.00 | 71 | 1016.5 |
| 20260509084554 | 67 | 31 | 4.0 | 5.0 | 0.00 | 0.00 | 0.00 | 66 | 1016.6 |
| 20260509083056 | 66 | 288 | 1.0 | 7.0 | 0.00 | 0.00 | 0.00 | 67 | 1016.6 |
| 20260509081542 | 65 | 258 | 5.0 | 8.0 | 0.00 | 0.00 | 0.00 | 69 | 1016.6 |
| 20260509080045 | 65 | 280 | 2.0 | 7.0 | 0.00 | 0.00 | 0.00 | 71 | 1016.8 |
| 20260509074543 | 63 | 268 | 6.0 | 9.0 | 0.00 | 0.00 | 0.00 | 72 | 1016.8 |
| 20260509073037 | 63 | 244 | 5.0 | 8.0 | 0.00 | 0.00 | 0.00 | 73 | 1016.9 |
| 20260509071540 | 62 | 295 | 5.0 | 8.0 | 0.00 | 0.00 | 0.00 | 74 | 1016.9 |
| 20260509070029 | 61 | 249 | 7.0 | 9.0 | 0.00 | 0.00 | 0.00 | 75 | 1016.9 |
| 20260509064528 | 60 | 256 | 7.0 | 9.0 | 0.00 | 0.00 | 0.00 | 76 | 1016.7 |
| 20260509063027 | 59 | 270 | 6.0 | 9.0 | 0.00 | 0.00 | 0.00 | 77 | 1016.7 |
| 20260509061525 | 59 | 264 | 6.0 | 8.0 | 0.00 | 0.00 | 0.00 | 78 | 1016.8 |
| 20260509060024 | 58 | 249 | 7.0 | 10.0 | 0.00 | 0.00 | 0.00 | 81 | 1016.8 |
| 20260509054522 | 58 | 257 | 6.0 | 8.0 | 0.00 | 0.00 | 0.00 | 83 | 1016.7 |
| 20260509053028 | 57 | 251 | 5.0 | 9.0 | 0.00 | 0.00 | 0.00 | 84 | 1016.7 |
| 20260509051518 | 57 | 243 | 7.0 | 11.0 | 0.00 | 0.00 | 0.00 | 84 | 1016.6 |
| 20260509050021 | 57 | 250 | 7.0 | 9.0 | 0.00 | 0.00 | 0.00 | 84 | 1016.4 |
| 20260509044515 | 57 | 250 | 4.0 | 9.0 | 0.00 | 0.00 | 0.00 | 85 | 1016.3 |
| 20260509043012 | 57 | 250 | 4.0 | 7.0 | 0.00 | 0.00 | 0.00 | 85 | 1016.1 |
| 20260509041509 | 57 | 249 | 3.0 | 7.0 | 0.00 | 0.00 | 0.00 | 86 | 1016.0 |
| 20260509040023 | 57 | 251 | 2.0 | 4.0 | 0.00 | 0.00 | 0.00 | 86 | 1015.8 |
| 20260509034507 | 57 | 251 | 4.0 | 7.0 | 0.00 | 0.00 | 0.00 | 86 | 1015.8 |
| 20260509033007 | 57 | 258 | 5.0 | 7.0 | 0.00 | 0.00 | 0.00 | 86 | 1015.9 |
| 20260509031506 | 57 | 250 | 5.0 | 8.0 | 0.00 | 0.00 | 0.00 | 86 | 1016.0 |
| 20260509030001 | 57 | 249 | 5.0 | 9.0 | 0.00 | 0.00 | 0.00 | 86 | 1015.9 |
| 20260509024602 | 57 | 359 | 5.0 | 8.0 | 0.00 | 0.00 | 0.00 | 85 | 1015.9 |